Lapse_Rate
2.4 1.4 1.3 1.8 1.9 2.2 2.5 2.4 2.7 2.0 2.0 2.1 2.4 2.5 2.5 3.0 3.1 3.6 4.1 4.7 5.8 6.5 6.2 6.6 6.1 6.1 6.1 7.1 7.7 7.9 8.0 8.4 7.7 7.6 7.0 6.8 6.3 5.5 5.2 4.5 4.3 4.1 4.3
1.9 1.9 1.3 1.3 1.4 2.2 3.1 3.2 2.8 1.7 1.7 2.1 1.9 2.4 2.7 2.9 3.3 3.4 3.7 4.3 4.2 6.6 6.5 5.8 6.9 7.0 6.3 6.9 7.3 7.8 7.8 8.0 8.0 8.1 7.6 7.5 6.1 5.4 4.8 4.3 4.3 4.2 4.4
1.3 1.8 1.8 1.4 1.4 1.6 2.0 2.6 2.0 1.9 2.0 2.0 2.4 2.5 3.0 3.4 2.7 3.1 3.4 4.1 4.3 4.5 6.6 6.3 6.1 7.0 7.3 7.3 7.5 7.3 7.8 8.1 8.4 8.0 7.8 8.2 7.0 5.2 4.9 4.3 4.0 4.0 4.1
0.5 0.8 1.9 1.8 1.4 1.7 1.9 1.8 2.2 2.7 2.2 2.3 2.4 2.4 2.6 2.9 3.1 3.1 3.6 3.8 4.4 4.8 5.5 6.5 5.9 6.1 6.9 7.2 7.6 7.6 8.2 8.1 7.9 7.6 7.7 7.6 7.0 5.7 5.0 4.5 4.1 3.9 4.0
0.3 0.7 1.4 1.5 1.7 2.3 2.5 2.6 2.9 3.4 3.3 3.1 2.5 2.3 2.6 3.0 3.1 3.5 3.3 3.7 4.1 4.8 4.9 5.2 5.3 5.6 6.9 7.0 7.1 7.7 8.4 8.4 8.3 7.8 8.0 7.5 7.0 6.1 5.4 4.1 4.1 4.1 4.2
0.7 0.6 0.8 1.0 1.9 3.1 3.2 3.0 3.6 3.3 3.6 3.9 4.0 3.9 2.9 2.9 3.5 2.9 3.4 4.1 4.3 4.8 4.8 4.7 4.8 5.0 6.8 6.8 6.9 7.4 8.2 8.8 8.7 7.9 7.7 7.9 7.6 7.5 5.6 4.1 4.0 4.0 4.0
1.0 0.9 1.2 1.1 1.9 3.2 3.3 3.5 4.2 4.0 4.0 4.0 3.6 4.0 3.8 4.0 4.2 4.5 4.3 4.7 4.8 5.1 5.0 4.9 4.8 4.5 5.9 6.8 6.7 7.3 8.0 8.8 8.3 8.1 7.9 8.1 7.8 7.7 5.5 4.2 3.8 3.9 3.9
1.1 1.3 1.4 1.4 1.8 2.9 3.7 3.8 4.4 4.2 4.0 3.5 4.6 4.7 5.0 4.9 4.3 3.8 4.4 5.2 5.1 5.1 4.5 4.3 4.7 4.7 5.1 5.6 6.4 7.2 7.4 8.0 8.2 8.4 7.9 7.4 7.8 7.3 5.7 5.4 4.1 4.0 3.9
0.9 1.2 1.1 1.6 2.0 2.9 3.8 4.6 4.8 4.9 4.8 3.9 3.8 4.3 4.8 5.5 4.3 3.3 3.8 4.3 5.1 4.8 4.7 4.5 4.4 4.7 4.7 5.2 5.8 7.0 7.4 7.4 7.3 7.7 7.8 7.5 7.4 7.7 6.2 6.0 4.6 4.4 4.3
0.4 0.9 1.0 1.6 1.8 2.6 3.1 4.8 5.1 5.3 5.3 4.7 4.2 3.9 4.4 4.6 4.8 5.1 4.4 4.1 5.2 4.9 4.6 4.4 4.2 4.4 4.5 4.9 5.9 6.5 7.3 7.4 7.2 7.3 7.6 7.5 7.4 7.6 7.8 7.1 7.3 5.2 4.5
0.6 1.7 1.1 1.6 2.4 3.0 3.7 2.9 4.7 4.6 5.5 5.5 5.0 3.5 4.3 4.0 4.4 5.2 5.4 5.5 5.4 4.8 4.3 4.3 4.0 4.5 4.5 4.8 4.5 5.4 7.0 6.9 7.0 7.2 7.4 7.8 7.7 7.8 7.7 8.2 7.7 6.3 5.0
-0.1 0.4 0.6 1.0 1.5 2.3 2.9 3.7 4.4 4.5 4.8 5.1 4.9 4.0 4.4 4.6 4.8 4.9 5.3 5.5 5.8 4.8 4.2 3.9 4.4 4.6 4.6 4.7 4.4 4.9 6.2 6.5 6.6 6.8 7.0 7.5 7.4 7.5 7.7 7.8 7.3 6.3 6.0
0.4 0.8 1.3 0.9 1.4 2.1 2.8 3.1 3.9 4.2 4.3 4.9 4.4 3.9 4.2 4.4 4.6 5.2 5.7 6.2 5.4 4.6 4.5 4.2 4.3 4.5 4.4 4.1 4.2 4.6 5.0 5.7 6.1 6.3 6.6 6.8 6.9 7.1 7.0 7.0 7.0 6.8 6.4
0.6 0.4 2.3 2.1 1.6 1.5 2.3 2.5 2.9 3.9 4.0 4.6 4.6 4.4 4.3 4.8 4.6 5.3 6.1 5.9 5.3 4.9 4.5 4.1 4.2 4.2 4.5 4.2 4.2 4.5 4.4 5.0 5.8 6.0 6.0 6.1 6.2 6.3 6.3 6.3 6.1 6.4 6.5
1.9 1.6 1.2 1.4 1.5 1.1 1.8 2.3 3.2 3.4 3.8 4.2 4.5 4.6 4.6 4.2 3.8 4.5 5.2 5.9 5.7 5.5 6.0 4.6 4.3 4.2 4.4 4.6 4.6 4.0 4.1 4.2 4.6 5.0 5.2 5.5 5.2 5.3 5.5 5.9 5.9 5.8 6.0
1.7 1.1 1.6 1.6 1.5 1.5 1.5 2.8 3.4 3.6 3.8 3.9 4.2 4.6 4.6 4.4 4.3 4.2 4.5 5.1 5.5 5.6 5.9 4.0 4.4 4.0 4.4 4.4 5.0 3.7 3.9 4.3 4.4 4.1 4.0 4.0 3.8 3.9 4.1 4.7 5.3 5.8 5.8
1.0 1.0 1.5 1.7 1.4 1.3 1.4 2.5 3.2 3.4 3.6 3.7 4.3 4.5 4.9 4.9 4.3 4.3 4.5 4.6 4.9 4.8 5.3 4.3 4.2 4.2 4.3 4.5 5.8 3.5 3.7 3.4 3.7 4.7 4.1 4.4 3.7 2.9 2.3 2.9 3.8 4.1 4.3
2.9 1.7 1.7 2.4 1.8 1.2 1.1 2.1 2.9 3.4 3.5 3.9 4.1 4.3 5.1 4.6 4.3 4.7 5.0 4.9 4.7 4.1 4.5 4.3 3.8 4.1 4.6 4.4 4.6 3.6 3.3 3.8 3.9 3.9 4.6 4.1 3.7 3.3 1.9 1.5 2.1 2.5 2.8
4.0 3.0 2.4 2.4 2.2 1.5 1.3 2.0 3.5 3.3 3.8 4.0 4.0 4.0 4.3 4.5 4.7 4.2 4.6 4.6 4.5 4.4 4.2 4.4 4.5 4.2 4.5 3.5 3.5 3.5 3.4 3.3 3.5 4.0 3.3 2.3 2.1 1.9 1.0 0.5 0.3 0.8 0.8
4.1 3.9 3.5 2.7 2.5 2.0 2.0 2.4 3.7 3.7 3.6 4.0 4.0 3.9 4.3 4.1 4.2 4.1 4.5 4.8 4.5 4.7 4.6 4.8 5.0 4.1 4.3 3.6 4.0 4.1 3.7 3.2 2.0 -0.4 -1.6 -1.6 -1.7 -1.5 -1.2 -1.5 -1.6 -1.9 -2.2
-1.7 -1.2 4.3 4.2 4.1 2.6 2.5 2.9 3.9 3.8 4.0 4.1 4.2 4.1 4.3 4.0 2.6 3.9 4.9 4.8 5.1 4.9 5.0 4.8 5.0 5.0 4.6 4.0 4.4 3.8 4.3 4.2 2.6 -0.5 -1.4 -1.6 -2.2 -2.3 -2.3 -2.3 -2.1 -2.7 -3.0
-2.4 -3.0 -2.3 -0.8 1.7 -1.4 -3.3 -0.9 3.1 4.2 4.2 4.0 4.0 4.0 4.2 1.7 1.8 0.4 0.5 1.5 4.0 5.2 5.1 5.2 5.3 5.0 5.4 4.9 4.3 4.7 4.7 3.9 3.0 -0.3 -1.1 -2.6 -2.6 -2.9 -3.0 -3.1 -3.3 -3.4 -3.6
-1.0 -1.4 -2.9 -3.3 -3.5 -3.4 -4.6 -1.5 -0.7 4.7 4.4 4.3 4.0 3.4 4.1 3.6 2.3 3.4 -2.1 -2.6 -3.4 -3.4 -1.1 5.1 5.1 4.8 4.3 4.0 4.0 3.9 4.3 3.9 2.6 -0.5 -1.5 -3.2 -3.8 -3.5 -3.2 -3.3 -3.3 -3.4 -3.6
0.1 -0.3 -0.8 0.4 -1.0 -1.5 -4.5 -3.9 -2.3 2.0 0.7 -1.9 -2.2 -1.0 3.3 2.8 2.2 0.7 0.0 -1.5 -3.3 -3.6 -3.0 -2.2 -0.9 -2.0 -2.1 -1.4 1.7 2.7 3.5 -1.4 -2.7 -3.5 -2.1 -2.9 -4.1 -3.5 -3.8 -3.1 -3.1 -3.2 -4.0
0.6 0.5 0.0 -0.4 -0.3 -1.1 -2.7 -2.9 -3.1 -3.4 -3.7 -4.6 -4.6 -4.4 -4.0 -1.4 -3.0 -0.9 -0.4 -2.5 -4.5 -5.0 -4.6 -4.5 -4.4 -4.7 -4.5 -4.0 -2.9 0.2 -0.3 0.5 -1.6 -2.6 -4.0 -4.0 -4.4 -3.6 -2.7 -1.9 -1.4 -1.6 -1.8
1.6 1.2 0.7 0.0 -0.0 -1.4 -1.5 -0.3 -1.5 -3.3 -2.9 -4.5 -4.7 -4.8 -4.7 -4.0 -3.2 -2.9 -0.7 -2.1 -3.1 -5.0 -5.6 -5.9 -5.3 -5.5 -5.7 -5.5 -5.6 -4.7 -3.0 -1.0 -2.5 -2.5 -3.8 -3.4 -3.4 -2.6 0.7 1.4 0.4 -0.2 -0.4
Wind_Speed
7 5 5 8 8 11 9 7 7 6 6 8 9 8 7 8 9 10 12 14 19 19 20 20 19 19 19 20 18 19 19 19 18 17 17 17 16 16 16 15 15 14 13
6 7 5 4 6 11 11 10 7 4 4 6 4 7 7 8 8 8 9 8 13 21 22 20 21 21 20 20 20 20 19 20 19 17 18 18 17 16 16 14 14 13 12
12 9 6 5 6 10 11 10 6 5 3 3 5 5 6 7 7 8 8 9 11 18 25 25 24 23 22 20 21 20 22 20 21 19 16 20 17 17 15 15 13 13 13
16 9 7 5 8 9 8 5 6 4 3 4 3 4 3 6 7 8 9 10 10 12 18 27 24 22 23 22 23 23 22 21 17 18 17 18 17 16 16 14 13 13 12
15 9 7 6 11 5 6 6 4 5 5 4 3 3 3 3 3 5 6 8 10 12 11 19 23 23 24 23 24 24 23 22 19 19 19 18 19 17 16 15 13 12 12
14 9 6 7 10 7 6 6 7 6 4 5 4 4 3 3 3 4 4 8 10 13 14 13 17 20 27 25 24 25 23 21 20 19 19 18 17 18 16 15 15 14 14
14 9 7 7 8 9 8 11 6 7 4 6 3 2 3 6 6 5 6 6 8 12 14 14 14 16 20 27 24 26 25 22 20 18 19 21 20 19 20 19 17 16 15
14 10 11 9 10 7 9 10 8 3 4 7 3 2 2 2 6 6 5 6 7 10 8 8 16 16 17 16 21 25 25 23 24 22 21 23 23 19 18 18 18 17 17
13 13 13 10 10 9 8 9 10 9 6 6 7 4 2 3 2 3 9 5 8 6 7 13 15 15 16 17 20 27 27 26 24 24 23 23 23 21 20 20 19 18 18
16 14 13 12 12 10 10 9 9 9 7 6 4 4 1 4 3 1 2 6 7 9 9 7 12 14 16 16 20 22 27 26 25 23 24 24 25 23 23 21 21 20 19
8 10 11 10 11 9 9 9 10 9 8 6 6 3 4 2 1 2 3 2 6 8 9 9 10 13 16 16 16 20 29 29 26 23 26 26 27 27 25 24 24 23 22
6 8 11 12 12 11 11 10 9 10 8 7 7 5 5 3 4 4 4 3 8 6 8 8 9 11 15 16 17 21 32 31 29 26 25 25 25 26 28 27 28 27 25
6 8 9 11 10 11 11 10 10 10 11 10 10 7 5 6 3 4 6 6 3 2 3 6 7 11 14 15 16 22 26 31 30 30 29 27 26 25 25 25 25 25 26
12 14 14 13 13 12 11 11 9 9 10 9 10 7 5 6 5 6 7 6 4 3 2 4 6 7 11 13 16 24 19 29 32 32 31 31 30 29 27 28 27 26 27
6 6 11 15 14 13 14 13 10 11 10 9 8 8 7 6 5 6 7 8 6 3 5 4 3 7 9 10 14 16 19 22 31 32 33 32 32 32 30 30 30 29 29
6 9 13 15 14 13 13 13 10 10 11 7 6 8 8 6 7 6 6 5 7 5 5 3 3 4 9 11 17 20 20 23 27 32 31 31 30 31 29 30 31 32 31
11 12 14 14 14 15 13 12 12 12 12 10 8 10 10 8 6 6 6 5 7 5 3 1 3 6 9 13 14 16 18 18 18 26 29 24 26 27 26 27 29 29 27
9 12 13 13 13 13 13 14 13 12 12 11 11 11 11 7 9 8 7 9 6 4 3 4 4 5 10 9 11 11 10 16 16 18 21 21 20 19 20 21 22 21 20
8 9 10 12 12 13 13 14 14 13 13 12 12 12 11 11 10 7 7 8 7 5 4 3 4 3 3 2 3 4 7 6 8 8 12 15 15 12 10 10 10 11 11
4 8 9 11 11 12 13 12 11 11 10 10 12 12 12 12 11 11 9 10 8 7 7 7 6 3 3 2 2 5 4 3 4 7 11 11 16 17 15 15 15 16 18
13 16 7 9 9 9 9 12 12 11 12 11 11 11 11 12 13 13 9 10 10 9 8 9 7 6 7 4 9 5 7 6 2 4 4 5 7 9 12 16 17 18 18
15 16 16 16 11 6 12 4 11 11 11 11 10 10 10 12 12 15 14 13 13 10 9 6 8 8 10 8 5 7 8 3 3 6 3 3 3 5 8 12 18 20 21
15 15 16 16 14 14 23 8 2 8 8 9 9 8 8 7 10 8 7 10 10 9 1 8 7 6 5 6 6 5 7 4 3 4 5 3 2 6 10 16 17 18 19
16 14 15 14 12 12 23 20 11 2 5 8 8 6 5 7 7 10 9 7 6 5 3 3 4 4 3 2 1 4 5 6 5 3 2 3 2 3 6 12 15 15 16
14 14 13 16 13 13 26 20 14 11 10 10 9 11 8 4 4 9 11 10 7 7 13 20 19 17 16 14 7 3 4 4 2 2 1 3 3 4 2 4 10 14 14
11 11 14 16 24 18 27 24 14 9 9 7 9 10 18 9 8 3 6 11 9 6 7 6 5 10 12 12 16 7 2 3 3 2 1 3 6 4 3 1 6 9 12
Wind_Direction
189 178 173 167 164 163 160 155 156 171 178 188 192 185 181 178 197 212 225 229 206 190 193 181 179 179 171 169 168 168 172 166 161 161 162 157 159 157 155 152 150 145 145
180 192 177 173 167 171 173 176 180 179 180 180 194 200 204 203 197 205 220 240 227 202 193 186 187 186 180 175 177 173 168 168 168 175 171 165 167 162 162 160 150 145 149
183 186 184 180 177 171 164 170 157 141 158 177 204 198 202 204 212 204 209 225 236 220 202 193 196 189 184 183 184 176 173 175 173 171 174 169 166 165 167 160 156 157 160
183 174 182 185 163 166 169 164 168 166 169 190 200 206 207 202 214 223 220 223 228 222 218 200 198 199 183 183 186 184 179 174 169 171 183 173 170 173 168 166 167 168 171
184 179 183 173 163 170 179 175 178 178 183 190 206 210 210 215 211 213 223 222 220 213 209 201 197 204 190 186 188 190 186 180 184 182 181 180 173 178 176 172 178 180 183
186 180 176 170 172 182 182 179 184 176 169 190 199 208 219 221 214 213 214 215 212 210 205 196 205 211 191 191 191 194 190 187 189 189 186 186 183 185 181 182 188 193 196
182 182 184 174 179 193 188 195 182 179 169 170 144 203 212 223 219 219 211 216 209 204 206 202 192 192 191 196 194 194 190 192 188 198 192 188 189 191 189 191 193 201 206
181 183 183 187 189 190 187 188 178 154 176 170 160 120 201 218 229 223 219 213 210 199 197 185 188 181 182 195 197 198 193 193 193 195 197 193 192 193 202 196 200 206 211
186 185 183 182 186 193 193 188 184 176 177 190 197 152 179 214 169 192 223 205 201 196 186 189 186 183 185 189 196 199 196 197 196 192 198 200 193 193 209 210 210 212 218
187 183 182 184 186 194 191 188 186 187 164 191 208 225 162 149 185 254 221 213 199 197 193 196 184 184 189 191 197 196 200 205 201 201 198 201 198 197 205 219 216 216 220
197 180 180 179 189 197 201 185 183 188 195 182 199 156 199 198 149 162 219 208 208 207 198 191 187 184 192 196 197 198 205 205 207 211 204 205 205 204 204 213 219 220 221
188 193 185 185 187 189 195 200 195 193 196 197 206 189 178 175 196 202 227 221 219 200 192 186 185 187 192 199 199 200 206 208 211 216 220 215 213 209 208 210 218 218 222
177 184 222 205 194 194 194 190 200 204 207 204 202 199 197 207 167 206 217 232 191 192 179 188 181 186 191 195 204 205 208 212 215 219 222 225 225 224 220 218 221 222 224
190 174 201 213 208 194 188 188 193 204 198 199 195 194 196 211 199 207 223 219 224 172 178 153 171 177 184 191 206 207 209 216 219 222 225 229 231 230 227 225 223 225 227
225 184 193 213 210 198 193 188 198 198 190 189 194 192 203 210 202 211 220 226 214 173 196 167 142 179 174 192 217 211 214 218 221 225 228 231 234 236 235 235 234 232 232
199 188 200 207 209 198 198 194 196 193 188 188 189 193 207 217 206 202 205 219 221 201 183 140 167 154 188 212 231 215 211 214 220 224 228 231 235 240 239 239 240 240 240
201 201 205 206 200 200 192 192 194 188 188 184 188 194 204 201 204 192 197 194 206 189 163 221 147 171 195 215 225 214 211 204 212 219 222 230 238 240 241 241 243 242 243
198 198 197 204 202 195 189 194 192 187 184 188 193 196 202 196 199 195 200 204 204 183 146 153 176 196 209 207 206 197 203 206 207 208 220 225 236 244 249 244 246 245 246
213 214 205 204 199 193 190 198 195 187 192 192 191 196 192 197 206 193 200 201 199 191 187 147 187 176 187 175 162 189 193 189 167 190 217 237 234 240 243 235 233 235 226
286 211 223 223 211 199 193 194 190 188 191 196 195 194 196 196 202 197 199 205 199 196 197 205 198 172 184 181 161 184 183 165 138 92 86 111 108 108 112 112 113 118 118
5 4 266 222 214 204 200 193 189 195 197 198 200 195 201 198 200 201 204 211 206 209 211 209 209 209 197 185 201 185 200 184 133 140 121 118 102 104 100 98 105 108 108
26 21 14 15 15 35 338 231 182 194 195 197 199 200 199 192 200 201 207 200 192 206 208 202 204 204 207 207 189 194 201 172 170 165 116 96 106 95 91 96 109 111 110
22 27 30 21 15 2 357 351 279 189 194 200 198 197 201 195 190 192 123 109 74 62 104 201 203 195 171 188 167 180 191 174 144 138 108 90 58 90 97 107 110 111 110
22 22 28 20 23 1 9 11 349 83 81 57 38 13 231 179 175 152 145 115 89 49 31 57 69 70 39 38 165 167 172 105 72 60 93 120 129 93 93 101 114 112 109
21 22 23 19 14 18 22 9 52 37 59 50 43 33 15 13 43 157 145 129 111 91 75 85 85 79 66 52 32 129 133 137 121 150 84 112 146 110 94 110 109 109 105
29 30 30 28 20 28 22 18 36 70 30 43 38 29 28 34 342 79 150 153 148 151 132 102 73 61 57 52 45 46 48 131 118 109 154 101 139 140 131 108 96 89 97